Location: Remedello Sotto
(45.2500°N, 10.3667°E)
Time: 11:56:16
(UTC+00:00)

Cosmos 1869 - Pass Details

Date: 03 February 2023
Orbit: 510 x 550 km, 82.5° (Epoch: 20 March)

Event Time Altitude Azimuth Distance (km) Brightness Sun altitude
Rises 17:26:43 0° 1° (N) 2,661 6.7 -10.6°
Reaches altitude 10° 17:29:04 10° 13° (NNE) 1,775 5.7 -11.0°
Maximum altitude 17:32:29 29° 74° (ENE) 1,004 4.1 -11.6°
Drops below altitude 10° 17:35:55 10° 136° (SE) 1,785 5.6 -12.2°
Sets 17:38:17 0° 147° (SSE) 2,679 6.6 -12.6°
